[[{"header":{"parameterUnit":"m.s-1","parameterCategory":1,"la1":30.2991,"la2":30.254,"lo1":-89.0895,"lo2":-89.0444,"dy":0.0017,"dx":0.0017,"nx":28,"ny":28,"refTime":"2024-06-17T03:00:00:Z","depth":0,"parameterNumber":2,"parameterNumberName":"U-component_of_WINDS"},"data":[0,0,0,0,0,0,0,0,0,0,0,0,0,0,0,0,0,0,0,0,0,0,0,0,0,0,0,0,0,0,0,0,0,0,0,0,0,0,0,0,0,0,0,0,0,0,0,0,0,0,0,0,0,0,0,0,0,0,-5.2025,-5.2026,0,-5.212,-5.2121,-5.2122,-5.2062,-5.2059,-5.2056,-5.2053,-5.2151,-5.2156,-5.2161,0,0,0,0,0,0,0,0,0,0,0,0,0,-5.1789,-5.1794,-5.2025,-5.2026,-5.2027,-5.212,-5.2121,-5.2123,-5.2062,-5.2059,-5.2055,-5.2052,-5.2149,-5.2155,-5.2161,0,0,0,0,0,0,0,0,0,0,0,0,0,-5.1889,-5.1795,-5.2024,-5.2008,-5.2008,-5.212,-5.2121,-5.2123,-5.2063,-5.2059,-5.2054,-5.205,-5.2147,-5.2154,-5.2162,-5.2296,0,0,-5.2186,-5.219,0,0,0,0,0,0,0,0,-5.1883,-5.1897,-5.2009,-5.2009,-5.2009,-5.2075,-5.2074,-5.2181,-5.2064,-5.2042,-5.2053,-5.2048,-5.2129,-5.2138,-5.2165,-5.23,-5.2304,-5.2187,-5.2192,-5.2195,-5.2197,0,0,0,0,0,0,0,-5.1876,-5.1893,-5.2062,-5.2011,-5.2011,-5.1996,-5.2005,-5.2094,-5.2108,-5.2043,-5.2039,-5.2051,-5.2128,-5.2158,-5.2167,-5.2306,-5.2187,-5.2194,-5.2198,-5.2201,-5.2554,-5.2558,0,0,0,0,0,0,-5.1871,-5.1888,-5.2059,-5.2065,-5.1934,-5.2003,-5.2014,-5.2058,-5.2107,-5.211,-5.2055,-5.2048,-5.2146,-5.2158,-5.217,-5.2328,-5.2195,-5.2202,-5.2207,-5.2549,-5.2555,-5.256,0,0,0,0,0,0,-5.1866,-5.1887,-5.2055,-5.1975,-5.1996,-5.2012,-5.2062,-5.2062,-5.2092,-5.2116,-5.2118,-5.2083,-5.2143,-5.2159,-5.2265,-5.233,-5.2206,-5.2213,-5.2544,-5.2551,-5.2557,-5.2646,0,0,0,0,0,0,-5.1859,-5.1885,-5.1936,-5.1977,-5.2,-5.2149,-5.2066,-5.2067,-5.2105,-5.2098,-5.2142,-5.2146,-5.2141,-5.2253,-5.2272,-5.2339,-5.2219,-5.2538,-5.2547,-5.2555,-5.2637,-5.2655,-5.267,0,0,0,0,0,-5.1851,-5.1957,-5.1939,-5.196,-5.2064,-5.2153,-5.2166,-5.2159,-5.2111,-5.2162,-5.2177,-5.2144,-5.2321,-5.2265,-5.2286,-5.2356,-5.2534,-5.2544,-5.2555,-5.2629,-5.2651,-5.267,0,0,0,0,0,0,-5.1924,-5.1962,-5.1942,-5.2065,-5.2106,-5.2142,-5.2206,-5.2183,-5.2238,-5.2228,-5.2217,-5.2228,-5.2338,-5.2358,-5.2294,-5.2487,-5.242,-5.2435,-5.2469,-5.249,-5.2507,-5.2498,-5.2226,0,0,0,0,0,-5.1954,-5.2023,-5.2053,-5.2159,-5.218,-5.219,-5.2228,-5.222,-5.2261,-5.2278,-5.2301,-5.2343,-5.2408,-5.2451,-5.2512,-5.264,-5.2648,-5.2699,-5.2716,-5.2729,-5.2742,-5.281,-5.2832,-5.2594,-5.2594,-5.2594,0,0,-5.2018,-5.2047,-5.2091,-5.2174,-5.2204,-5.2275,-5.2205,-5.2283,-5.2335,-5.229,-5.239,-5.2409,-5.2455,-5.2573,-5.2625,-5.2592,-5.2809,-5.2743,-5.2753,-5.2758,-5.2823,-5.2845,-5.2865,-5.2601,-5.26,-5.2599,0,0,-5.2168,-5.2199,-5.2289,-5.2321,-5.2368,-5.2374,-5.2396,-5.2436,-5.2447,-5.2548,-5.2515,-5.2577,-5.269,-5.2723,-5.2755,-5.2919,-5.289,-5.294,-5.3025,-5.3092,-5.311,-5.3127,-5.3183,-5.3204,-5.2952,-5.2953,-5.2953,0,-5.2241,-5.2346,-5.2338,-5.2419,-5.2455,-5.2418,-5.2509,-5.2541,-5.2606,-5.2632,-5.2595,-5.2734,-5.2762,-5.2886,-5.2926,-5.2954,-5.2978,-5.2933,-5.3109,-5.3125,-5.314,-5.3194,-5.3216,-5.2958,-5.2958,-5.2957,-5.2957,0,-5.2432,-5.2506,-5.2573,-5.2636,-5.2681,-5.2766,-5.2771,-5.2817,-5.2805,-5.2815,-5.2918,-5.2951,-5.3017,-5.3047,-5.3036,-5.3169,-5.3147,-5.311,-5.3041,-5.3168,-5.3219,-5.3239,-5.2966,-5.2964,-5.2963,-5.2961,0,0,-5.2629,-5.2687,-5.2712,-5.274,-5.279,-5.2846,-5.293,-5.2995,-5.3034,-5.3081,-5.315,-5.3246,-5.3211,-5.3248,-5.324,-5.3299,-5.3425,-5.3254,-5.3255,-5.3283,-5.3572,-5.3598,-5.3622,-5.3407,-5.3411,-5.3414,-5.3567,0,-5.2781,-5.2927,-5.2922,-5.3057,-5.3124,-5.3091,-5.3164,-5.3202,-5.3214,-5.3273,-5.3286,-5.3353,-5.3304,-5.3325,-5.3382,-5.3398,-5.3482,-5.3387,-5.3469,-5.3473,-5.3456,-5.3648,-5.3676,-5.3819,-5.3587,-5.359,-5.3593,0,-5.2978,-5.303,-5.3172,-5.3211,-5.3239,-5.3305,-5.3363,-5.342,-5.3463,-5.3467,-5.3508,-5.3492,-5.3576,-5.3508,-5.3623,-5.3558,-5.3592,-5.3605,-5.3611,-5.3616,-5.3538,-5.3657,-5.3865,-5.3885,-5.3624,-5.3622,-5.3619,0,-5.3105,-5.3211,-5.3309,-5.3335,-5.3383,-5.343,-5.3452,-5.3491,-5.353,-5.3582,-5.3607,-5.3668,-5.3701,-5.3749,-5.3749,-5.37,-5.3865,-5.3797,-5.387,-5.387,-5.3904,-5.3902,-5.4118,-5.3931,-5.393,-5.393,-5.3929,0,-5.3273,-5.3361,-5.3367,-5.3427,-5.3524,-5.3518,-5.3614,-5.3632,-5.3667,-5.373,-5.3705,-5.3765,-5.3763,-5.3823,-5.3824,-5.3918,-5.3934,-5.3939,-5.3938,-5.394,-5.3939,-5.396,-5.3949,-5.3936,-5.3934,-5.3933,-5.3932,0,-5.343,-5.3438,-5.3543,-5.358,-5.3592,-5.3661,-5.3693,-5.375,-5.376,-5.384,-5.3859,-5.3874,-5.3944,-5.395,-5.4031,-5.4031,-5.4145,-5.4134,-5.413,-5.4128,-5.4199,-5.4192,-5.4435,-5.4466,-5.426,-5.4262,-5.4264,0,-5.3536,-5.3603,-5.3647,-5.3688,-5.3712,-5.3778,-5.3817,-5.3815,-5.3857,-5.3911,-5.3961,-5.4029,-5.4082,-5.4195,-5.4213,-5.4275,-5.4264,-5.4345,-5.4273,-5.4273,-5.4263,-5.4258,-5.4264,-5.4359,-5.4361,-5.4363,-5.4364,0,-5.3723,-5.3723,-5.3781,-5.3841,-5.3889,-5.3936,-5.398,-5.4014,-5.4017,-5.4066,-5.4136,-5.4178,-5.4261,-5.4327,-5.4388,-5.4411,-5.4388,-5.4387,-5.4407,-5.4408,-5.4402,-5.4404,-5.4166,-5.4381,-5.4379,-5.4378,-5.4377,-5.4376,-5.3856,-5.3913,-5.3953,-5.4018,-5.4051,-5.4093,-5.4147,-5.4164,-5.4223,-5.429,-5.4285,-5.4363,-5.4404,-5.4483,-5.451,-5.4571,-5.4544,-5.4573,-5.458,-5.4586,-5.4593,-5.4395,-5.4582,-5.4582,-5.4581,-5.4581,-5.4581,0,-5.404,-5.4064,-5.4124,-5.4186,-5.4237,-5.4212,-5.4259,-5.4303,-5.4372,-5.4412,-5.4465,-5.4546,-5.4611,-5.4635,-5.4698,-5.4742,-5.4733,-5.4759,-5.4754,-5.4759,-5.4615,-5.459,-5.4765,-5.4765,-5.4765,-5.4764,-5.4764,-5.4764,-5.4141,-5.4235,-5.4241,-5.4351,-5.4374,-5.445,-5.4479,-5.4517,-5.4548,-5.464,-5.4693,-5.4709,-5.4742,-5.4807,-5.4865,-5.4871,-5.4894,-5.4924,-5.4925,-5.4788,-5.477,-5.4752,-5.4729,-5.493,-5.493,-5.5064,-5.5065,-5.5066]},{"header":{"parameterUnit":"m.s-1","parameterCategory":1,"la1":30.2991,"la2":30.254,"lo1":-89.0895,"lo2":-89.0444,"dy":0.0017,"dx":0.0017,"nx":28,"ny":28,"refTime":"2024-06-17T03:00:00:Z","depth":0,"parameterNumber":3,"parameterNumberName":"V-component_of_WINDS"},"data":[0,0,0,0,0,0,0,0,0,0,0,0,0,0,0,0,0,0,0,0,0,0,0,0,0,0,0,0,0,0,0,0,0,0,0,0,0,0,0,0,0,0,0,0,0,0,0,0,0,0,0,0,0,0,0,0,0,0,4.8964,4.8964,0,4.8953,4.8953,4.8953,4.8859,4.8857,4.8854,4.8852,4.8842,4.8844,4.8846,0,0,0,0,0,0,0,0,0,0,0,0,0,4.8902,4.8904,4.8964,4.8964,4.8963,4.8953,4.8953,4.8953,4.886,4.8857,4.8854,4.8851,4.8842,4.8844,4.8846,0,0,0,0,0,0,0,0,0,0,0,0,0,4.8914,4.8905,4.8964,4.8916,4.8911,4.8953,4.8953,4.8953,4.886,4.8857,4.8853,4.885,4.8841,4.8844,4.8847,4.8935,0,0,4.8855,4.8857,0,0,0,0,0,0,0,0,4.8914,4.8917,4.8923,4.8919,4.8914,4.8904,4.8928,4.8947,4.8861,4.888,4.8852,4.8848,4.8866,4.8866,4.8872,4.8934,4.8934,4.8856,4.8857,4.8859,4.886,0,0,0,0,0,0,0,4.8913,4.8917,4.8959,4.8923,4.8918,4.8894,4.8892,4.8931,4.8892,4.8878,4.8871,4.8871,4.8863,4.887,4.8871,4.8934,4.8856,4.8858,4.886,4.8861,4.9065,4.9068,0,0,0,0,0,0,4.8919,4.8917,4.896,4.8959,4.8905,4.8898,4.8896,4.8911,4.8892,4.8886,4.8874,4.8867,4.8866,4.8868,4.8871,4.8969,4.8859,4.8861,4.8863,4.9061,4.9065,4.9069,0,0,0,0,0,0,4.8918,4.8924,4.896,4.8936,4.8939,4.8903,4.8921,4.8912,4.8919,4.8889,4.8882,4.8888,4.8864,4.8867,4.8919,4.8968,4.8863,4.8865,4.9057,4.9062,4.9067,4.917,0,0,0,0,0,0,4.8917,4.8924,4.8957,4.8937,4.8941,4.9009,4.8924,4.8915,4.8924,4.8914,4.89,4.8894,4.8861,4.8915,4.8922,4.897,4.8868,4.9052,4.9059,4.9066,4.9161,4.9178,4.9192,0,0,0,0,0,4.8915,4.8987,4.8959,4.8965,4.8981,4.9012,4.9013,4.8974,4.8929,4.8961,4.8942,4.8895,4.8962,4.8921,4.8928,4.8978,4.9049,4.9057,4.9065,4.9155,4.9175,4.9191,0,0,0,0,0,0,4.9013,4.8983,4.8952,4.902,4.9019,4.8996,4.9035,4.8996,4.9008,4.8999,4.8949,4.8947,4.9006,4.8998,4.8952,4.9061,4.8997,4.9007,4.9063,4.9082,4.9097,4.9096,4.887,0,0,0,0,0,4.9043,4.907,4.9043,4.9105,4.9107,4.9072,4.9084,4.9053,4.905,4.9049,4.9033,4.9033,4.9053,4.9068,4.9085,4.9161,4.9155,4.9199,4.9214,4.9227,4.9235,4.9272,4.929,4.9097,4.9097,4.9096,0,0,4.9104,4.9091,4.9112,4.9125,4.912,4.9149,4.9072,4.9106,4.9126,4.9054,4.9101,4.9091,4.9086,4.915,4.9177,4.9145,4.9288,4.9237,4.9248,4.9249,4.9282,4.93,4.9317,4.9102,4.9101,4.91,0,0,4.9229,4.9224,4.9274,4.9271,4.9265,4.9241,4.9254,4.9236,4.9226,4.9273,4.9218,4.9243,4.928,4.9278,4.9283,4.9408,4.9364,4.9416,4.9493,4.953,4.9545,4.9558,4.96,4.9615,4.9425,4.9425,4.9425,0,4.9306,4.9347,4.9304,4.9341,4.9348,4.9285,4.9334,4.9334,4.9334,4.934,4.9304,4.9348,4.9342,4.9402,4.9433,4.944,4.9451,4.9415,4.9546,4.9559,4.9571,4.961,4.9626,4.9431,4.943,4.9429,4.9429,0,4.944,4.9469,4.951,4.9511,4.9523,4.9567,4.953,4.9547,4.9517,4.9497,4.9544,4.9534,4.9547,4.9561,4.9531,4.9617,4.9597,4.9555,4.9489,4.9596,4.9631,4.9646,4.9439,4.9437,4.9435,4.9434,0,0,4.9624,4.9601,4.9616,4.9615,4.9604,4.9626,4.9667,4.9679,4.9693,4.9697,4.9728,4.9762,4.9722,4.9727,4.9697,4.973,4.9826,4.9683,4.9682,4.9707,4.9917,4.9946,4.9964,4.9799,4.9802,4.9804,4.9916,0,4.9741,4.9808,4.9771,4.9842,4.9867,4.9808,4.9843,4.984,4.9823,4.9843,4.9824,4.9847,4.9795,4.9797,4.9827,4.9808,4.9867,4.98,4.9826,4.9827,4.9824,4.9983,5.0014,5.012,4.993,4.9933,4.9934,0,4.9887,4.9894,4.9968,4.9951,4.996,4.9992,4.9999,5.0019,5.0015,5.0,5.0006,4.9968,5.0006,4.9945,4.9996,4.9951,4.996,4.9953,4.9956,4.9953,4.9884,4.9982,5.0153,5.0168,4.9957,4.9955,4.9953,0,5.0009,5.0039,5.0086,5.0087,5.0069,5.0092,5.0086,5.0078,5.0088,5.0095,5.01,5.0113,5.0119,5.013,5.0096,5.0055,5.0151,5.0087,5.0138,5.0139,5.0157,5.0156,5.0329,5.017,5.017,5.017,5.0169,0,5.0141,5.0188,5.014,5.0168,5.0219,5.0177,5.0227,5.0215,5.0209,5.0233,5.0185,5.0209,5.0165,5.0185,5.016,5.0204,5.0209,5.0197,5.0189,5.0199,5.02,5.0201,5.0191,5.0174,5.0173,5.0172,5.0171,0,5.0285,5.0255,5.0302,5.0281,5.0277,5.0314,5.0296,5.0322,5.0302,5.0334,5.0339,5.0309,5.033,5.0298,5.0317,5.0299,5.0359,5.0342,5.036,5.0354,5.0405,5.0399,5.0582,5.0603,5.0434,5.0436,5.0437,0,5.0369,5.0403,5.0386,5.0399,5.0395,5.0417,5.0425,5.0386,5.0397,5.0395,5.042,5.0437,5.0448,5.0485,5.0464,5.0477,5.0458,5.0521,5.0459,5.0468,5.0454,5.0451,5.0453,5.0532,5.0535,5.0536,5.0538,0,5.0522,5.0505,5.0519,5.0529,5.054,5.0546,5.0548,5.0562,5.052,5.0536,5.0556,5.0565,5.0583,5.0599,5.0608,5.0601,5.0562,5.0558,5.0569,5.0578,5.0586,5.0579,5.0391,5.0553,5.0551,5.055,5.0549,5.0549,5.0635,5.0662,5.0653,5.067,5.0668,5.0671,5.0693,5.0676,5.0692,5.0702,5.0679,5.0705,5.0699,5.0706,5.0704,5.0723,5.0696,5.0714,5.0717,5.0721,5.0728,5.0586,5.0725,5.0725,5.0724,5.0724,5.0724,0,5.0782,5.0773,5.079,5.0793,5.0807,5.077,5.077,5.0784,5.0807,5.0805,5.0816,5.0839,5.0856,5.0837,5.0849,5.0868,5.0851,5.0873,5.0869,5.0867,5.0754,5.074,5.0886,5.0886,5.0886,5.0886,5.0886,5.0886,5.0859,5.0901,5.0883,5.0923,5.0914,5.0938,5.0941,5.0944,5.0941,5.0969,5.0981,5.0969,5.096,5.0971,5.0984,5.0978,5.0984,5.1011,5.0999,5.0892,5.0876,5.086,5.0847,5.1014,5.1014,5.111,5.1111,5.1112]}]]